Change the Weather History Date:

Friday, August 2, 2013

  Actual Average (PASK) Record (PASK)
Temperature  
Mean Temperature 62 °F -  
Max Temperature 60 °F 58 °F 69 °F (1997)
Min Temperature 59 °F 48 °F 39 °F (2001)
Degree Days  
Heating Degree Days 2    
Growing Degree Days 12 (Base 50)    
Moisture  
Dew Point 59 °F    
Average Humidity 92    
Maximum Humidity 100    
Minimum Humidity 73    
Precipitation  
Precipitation 0.00 in - - ()
Sea Level Pressure  
Sea Level Pressure 29.85 in    
Wind  
Wind Speed 3 mph (ESE)    
Max Wind Speed 8 mph    
Max Gust Speed -    
Visibility 10 miles    
Events Rain    
Averages and records for this station are not official NWS values.
T = Trace of Precipitation, MM = Missing Value Source: NWS Daily Summary

Daily Weather History Graph

Daily Weather History Graph

Search for Another Location

Airport or City:

Trip Planner

Search our weather history database for the weather conditions in past years. The results will help you decide how hot, cold, wet, or windy it might be!

Date:

Astronomy

Aug. 02, 2013 Rise Set
Actual Time 5:20 AM AKDT 12:12 AM AKDT
Civil Twilight 3:20 AM AKDT 2:15 AM AKDT
Nautical Twilight Sun does not rise Sun does not rise
Astronomical Twilight Sun does not rise Sun does not rise
Moon 1:22 AM AKDT (8/2) 9:44 PM AKDT (8/2)
Length of Visible Light 22h 55m
Length of Day
18h 51m
Waning Crescent, 15% of the Moon is Illuminated
Aug 2
Waning Crescent
Aug 6
New
Aug 14
First Quarter
Aug 20
Full
Aug 28
Last Quarter

Hourly Weather History & Observations

Time (AKDT) Temp. Dew Point Humidity Pressure Visibility Wind Dir Wind Speed Gust Speed Precip Events Conditions
12:01 AM 63.0 °F 60.1 °F 90% 29.93 in 10.0 mi Calm Calm - N/A Rain Light Rain
1:01 AM 62.1 °F 59.0 °F 90% 29.92 in 10.0 mi Calm Calm - N/A   Scattered Clouds
2:01 AM 62.1 °F 59.0 °F 90% 29.92 in 10.0 mi Calm Calm - N/A   Scattered Clouds
3:01 AM 61.0 °F 57.9 °F 90% 29.91 in 10.0 mi Calm Calm - N/A   Partly Cloudy
4:01 AM 60.1 °F 57.9 °F 93% 29.90 in 10.0 mi Calm Calm - N/A   Scattered Clouds
5:01 AM 60.1 °F 57.9 °F 93% 29.90 in 10.0 mi NNE 4.6 mph - N/A Rain Light Rain
6:01 AM 60.1 °F 57.9 °F 93% 29.88 in 10.0 mi NW 5.8 mph - N/A   Overcast
7:01 AM 59.0 °F 57.9 °F 96% 29.89 in 10.0 mi Calm Calm - N/A   Mostly Cloudy
8:01 AM 59.0 °F 59.0 °F 100% 29.88 in 10.0 mi SE 3.5 mph - N/A Rain Light Rain
9:01 AM 60.1 °F 59.0 °F 96% 29.88 in 10.0 mi Calm Calm - N/A Rain Light Rain
10:01 AM 60.1 °F 59.0 °F 96% 29.87 in 10.0 mi ENE 5.8 mph - N/A Rain Light Rain
11:01 AM 60.1 °F 59.0 °F 96% 29.88 in 10.0 mi East 3.5 mph - N/A Rain Light Rain
12:01 PM 61.0 °F 59.0 °F 93% 29.88 in 10.0 mi East 6.9 mph - N/A Rain Light Rain
1:01 PM 61.0 °F 60.1 °F 97% 29.88 in 9.0 mi East 8.1 mph - N/A Rain Light Rain
2:01 PM 61.0 °F 60.1 °F 97% 29.87 in 9.0 mi East 6.9 mph - N/A Rain Rain
2:12 PM 60.8 °F 60.8 °F 100% 29.75 in 10.0 mi East 4.6 mph - N/A Rain Light Rain
3:01 PM 61.0 °F 60.1 °F 97% 29.86 in 10.0 mi ESE 5.8 mph - N/A Rain Light Rain
3:40 PM 62.6 °F 60.8 °F 94% 29.74 in 10.0 mi ESE 5.8 mph - N/A   Overcast
4:01 PM 62.1 °F 61.0 °F 96% 29.85 in 10.0 mi ESE 5.8 mph - N/A   Overcast
5:01 PM 64.0 °F 60.1 °F 87% 29.84 in 10.0 mi East 6.9 mph - N/A   Overcast
5:29 PM 62.6 °F 60.8 °F 94% 29.72 in 8.0 mi SE 6.9 mph - N/A Rain Rain
6:01 PM 62.1 °F 61.0 °F 96% 29.83 in 10.0 mi Variable 4.6 mph - N/A   Overcast
7:01 PM 64.9 °F 61.0 °F 87% 29.83 in 10.0 mi South 3.5 mph - N/A   Mostly Cloudy
7:48 PM 66.2 °F 57.2 °F 73% 29.71 in 10.0 mi Variable 5.8 mph - N/A   Mostly Cloudy
8:01 PM 64.9 °F 57.9 °F 78% 29.83 in 10.0 mi SW 4.6 mph - N/A   Scattered Clouds
9:01 PM 66.0 °F 57.0 °F 73% 29.83 in 10.0 mi SSW 3.5 mph - N/A   Overcast
10:01 PM 63.0 °F 59.0 °F 87% 29.83 in 10.0 mi South 3.5 mph - N/A Rain Light Rain
11:01 PM 61.0 °F 59.0 °F 93% 29.83 in 10.0 mi ENE 4.6 mph - N/A   Mostly Cloudy